Starlink 1564

operational
NORAD ID: 46058 Int'l Des: 2020-055 Owner: SPXS Country: US Constellation: starlink
LEOCIRCULARSTARLINK_TYPE

关于 Starlink 1564

正在加载描述...

实时位置

正在加载3D地球...

即将过境

高度历史

Altitude vs Time

uPlot chart will show altitude changes over time

两行轨道根数

1 46058U 20055AH 26035.91763639 .00001828 00000-0 14155-3 0 9993
2 46058 53.0537 264.1992 0000945 78.7522 281.3573 15.06412286304089
Epoch: Feb 4, 2026 • Age: 22 hours

当前状态

高度 556.7 km
速度 7.58 km/s
星下点 -29.83°S, 34.25°E
发射日期 Aug 7, 2020
运行时间 5.4 years
类型 internet

技术详情

分类 Payload
质量 260.00 kg
干质量 248.00 kg
总质量 260.00 kg
长度 0.20 m
直径 2.80 m
跨度 9.00 m
形状 Box + pan
制造商 SPXS
平台类型 Starlink
阶段状态 In Orbit
所有者/国家 SPXS/US

大型星座

Loading constellations...